Location: Bright Sky Observatory
(40.7821°N, 74.2425°W)
Time: 09:44:05
(UTC-04:00)

Daily predictions for brighter satellites

Satellite Brightness Start Highest point End
(mag) Time Altitude Azimuth Time Altitude Azimuth Time Altitude Azimuth
Lacrosse 5 3.6 19:59:49 10° NNW 20:03:42 21° NNE 20:07:34 10° ENE
OTV 4 1.1 20:03:43 10° W 20:06:33 42° S 20:09:23 10° ESE
EO 1 Delta rocket 4.4 20:02:16 10° NNE 20:06:42 40° E 20:11:43 10° SSE
Cosmos 1697 Rocket 4.0 20:04:26 10° SE 20:08:07 18° E 20:11:50 10° ENE
Meteor 1-29 3.7 20:08:01 10° N 20:11:26 60° WNW 20:14:51 10° SSW
Meteor 2-16 Rocket 4.5 20:05:39 10° S 20:11:39 64° E 20:17:39 10° NNE
Meteor 2-4 Rocket 4.0 20:06:19 10° N 20:12:12 84° W 20:18:08 10° S
Tiangong 1 1.4 20:09:17 10° W 20:12:22 60° N 20:15:26 10° ENE
Cosmos 2278 3.8 20:06:59 10° S 20:12:30 56° ESE 20:18:04 10° NNE
Helios 1B rocket 3.4 20:09:16 10° N 20:13:18 54° WNW 20:17:17 10° SSW
Cosmos 1821 Rocket 4.0 20:12:42 10° S 20:18:49 90° SE 20:24:57 10° N
Cosmos 1975 3.8 20:15:20 10° SSE 20:18:51 28° E 20:22:24 10° NNE
Cosmos 1605 Rocket 4.1 20:15:43 10° SSE 20:21:52 55° E 20:27:59 10° NNE
Okean 2 3.4 20:19:05 10° N 20:23:16 89° ENE 20:27:26 10° S
Cosmos 2369 3.7 20:20:35 10° S 20:26:11 65° ESE 20:31:50 10° NNE
Lacrosse 5 rocket 1.5 20:23:21 10° NW 20:26:58 46° NE 20:29:46 15° ESE
NOSS 7 (D) 4.3 20:24:12 10° SSW 20:27:41 89° ESE 20:31:04 10° NE
H-2A R/B 2.7 20:24:02 10° SSE 20:27:52 72° ENE 20:31:48 10° N
Cosmos 1980 Rocket 3.6 20:27:15 10° SE 20:30:43 17° E 20:34:12 10° ENE
Meteor 1-12 Rocket 4.3 20:30:22 10° S 20:35:56 58° E 20:41:39 10° NNE
NOSS 3-4 (A) 4.0 20:30:09 10° NW 20:37:12 78° WSW 20:44:39 10° SSE
NOSS 3-4 (C) 4.0 20:30:16 10° NW 20:37:19 79° WSW 20:44:47 10° SSE
CZ-4 DEB 3.5 20:38:27 19° SE 20:40:08 33° ENE 20:43:00 10° N
Cosmos 2208 Rocket 4.5 20:39:50 10° SSW 20:45:06 68° WNW 20:50:31 10° NNE
CZ-2D R/B 3.8 20:42:42 10° S 20:46:30 59° W 20:50:21 10° NNW
H-2A R/B 3.3 20:46:30 19° E 20:47:56 23° ENE 20:51:10 10° NNE
Cosmos 1461 3.0 20:45:10 10° NW 20:49:12 68° WSW 20:52:18 16° SSE
OAO 2 Rocket 3.9 20:46:38 10° WSW 20:51:20 40° S 20:54:03 22° ESE
Cosmos 2123 Rocket 4.2 20:45:15 10° N 20:51:25 74° W 20:57:33 10° S
Cosmos 1626 Rocket 3.5 20:47:18 10° N 20:51:43 72° E 20:55:45 12° SSE
Cosmos 2298 Rocket 4.3 20:47:21 10° N 20:52:33 51° ENE 20:55:58 21° SE
Cosmos 1939 Rocket 3.5 20:50:49 22° SE 20:53:01 40° ENE 20:56:56 10° N
FENGYUN 3A 4.3 20:50:04 10° S 20:55:19 56° W 21:00:35 10° NNW
Cosmos 1455 Rocket 4.1 20:51:34 10° SSW 20:55:45 48° W 21:00:00 10° N
Cosmos 2227 Rocket 2.5 20:53:13 10° NNW 20:58:50 67° WSW 21:04:23 10° S
Cosmos 1656 3.6 20:54:42 10° SSW 21:00:17 70° ESE 21:05:50 10° NNE
Envisat 3.3 20:57:13 21° SE 21:00:19 48° ENE 21:05:12 10° N
Cosmos 1602 Rocket 3.5 20:56:05 10° N 21:00:35 90° SW 21:04:38 12° S
deb Chang Zheng 4 4.4 20:56:50 10° NE 21:00:50 31° E 21:02:04 27° SE
Cosmos 1937 Rocket 4.0 20:58:59 10° N 21:04:00 42° ENE 21:06:21 27° ESE
Cosmos 1346 Rocket 4.4 21:00:28 10° NNW 21:04:04 35° W 21:07:42 10° SSW
Cosmos 1459 Rocket 4.2 20:59:08 11° SSE 21:04:44 47° E 21:10:32 10° NNE
Cosmos 1500 3.1 21:02:27 15° S 21:05:29 64° E 21:09:14 10° NNE
H-2A R/B 4.1 21:08:13 10° ENE 21:08:42 10° ENE 21:09:16 10° NE
Iridium 4 Rocket 3.3 21:04:43 10° N 21:09:51 86° W 21:14:17 11° S
ALOS 3.9 21:06:08 10° SSW 21:10:20 33° W 21:14:36 10° NNW
Cosmos 2082 4.3 21:07:34 10° NNW 21:13:03 54° WSW 21:18:05 12° S
Cosmos 2084 3.4 21:09:23 10° NNW 21:13:26 65° NE 21:14:49 39° ESE
Cosmos 2297 Rocket 2.4 21:08:41 10° NNW 21:14:20 70° WSW 21:18:31 18° S
Cosmos 220 Rocket 4.3 21:14:17 10° NNW 21:18:27 62° WSW 21:20:50 24° S
Cosmos 1340 3.5 21:15:08 10° N 21:18:25 33° ENE 21:18:25 33° ENE
Cosmos 2150 Rocket 3.9 21:13:53 10° NNW 21:19:04 77° ENE 21:21:30 32° SSE
RESURS DK-1 2.7 21:16:41 10° NNW 21:20:42 47° ENE 21:21:23 42° E
CZ-3C R/B 4.2 20:48:28 10° W 21:22:04 29° SW 21:28:19 16° SSE
Cosmos 2058 Rocket 4.4 21:26:12 26° ENE 21:26:12 26° ENE 21:29:03 10° NNE
USA 186 4.4 21:23:03 10° SW 21:25:21 18° W 21:27:33 10° NW
YAOGAN 6 3.6 21:26:58 33° NE 21:26:58 33° NE 21:29:54 10° N
SPOT 1/Viking Rocket 4.4 21:26:21 31° E 21:27:12 33° ENE 21:31:48 10° N
Cosmos 1515 4.4 21:25:02 10° NNW 21:28:48 53° W 21:30:46 25° SSW
DELTA 2 R/B (1) 3.7 21:23:51 10° W 21:29:18 58° SSW 21:31:01 40° SE
BREEZE-M DEB (TANK) 3.8 21:13:46 10° WSW 21:29:30 82° SSE 21:32:42 23° ENE
ERS-1 Rocket 3.3 21:27:56 20° S 21:31:20 65° WSW 21:36:21 10° NNW
Cosmos 1606 Rocket 3.6 21:34:01 55° ESE 21:34:12 55° E 21:38:32 10° NNE
Cosmos 1802 Rocket 4.0 21:29:34 18° S 21:34:27 71° E 21:40:52 10° NNE
MetOp-A 4.2 21:34:09 43° SE 21:35:41 60° ENE 21:40:59 10° N
Cosmos 1743 2.6 21:40:00 65° SSW 21:40:32 87° W 21:44:28 10° N
Cosmos 1898 Rocket 3.8 21:35:52 10° NNW 21:41:08 65° WSW 21:43:26 33° S
OTV 4 3.2 21:40:28 10° WSW 21:41:08 13° SW 21:41:08 13° SW
Cosmos 1763 Rocket 3.3 21:43:23 55° SE 21:44:07 61° ESE 21:49:07 10° NNE
Cosmos 1125 Rocket 4.5 21:42:36 10° N 21:47:13 31° ENE 21:47:16 31° ENE
Lacrosse 5 1.7 21:42:15 10° NW 21:47:20 82° NE 21:48:08 64° ESE
Tiangong 1 2.6 21:45:55 10° WNW 21:47:55 36° WNW 21:47:55 36° WNW
Cosmos 2016 Rocket 3.8 21:47:11 32° S 21:50:09 79° E 21:56:22 10° N
Cosmos 1697 Rocket 3.1 21:45:56 10° SW 21:51:31 61° WNW 21:57:08 10° NNE
SPOT 5 2.9 21:50:56 55° S 21:52:05 87° W 21:56:58 10° NNW
SL-16 R/B 3.8 22:00:58 20° ENE 22:00:58 20° ENE 22:03:03 10° NE
Cosmos 1726 Rocket 3.5 21:58:23 76° NNE 21:58:23 76° NNE 22:02:29 10° N
SL-08 RB Rocket 4.4 22:01:28 44° NE 22:01:28 44° NE 22:05:16 10° N
NOAA 11 4.2 22:00:38 60° E 22:01:03 62° ENE 22:06:27 10° N
USA 215 3.9 22:00:24 33° ENE 22:02:48 45° NNE 22:08:57 10° NW
Cosmos 2173 Rocket 4.4 21:56:34 10° SSW 22:02:51 62° W 22:09:09 10° N
Cosmos 1842 4.3 22:01:44 10° N 22:04:21 40° N 22:04:21 40° N
Cosmos 841 Rocket 3.3 22:05:14 75° S 22:05:41 85° ESE 22:10:56 10° NNE
Lacrosse 5 rocket 3.4 22:03:26 10° W 22:05:31 17° WSW 22:05:31 17° WSW
Cosmos 1825 Rocket 4.4 22:07:47 10° NNW 22:12:00 44° W 22:12:30 42° WSW
ARGOS 3.0 22:12:12 77° E 22:12:18 77° ENE 22:17:42 10° N
Cosmos 1980 Rocket 2.5 22:08:27 10° SSW 22:14:04 66° WNW 22:19:46 10° NNE
Cosmos 1864 Rocket 4.3 22:17:11 69° S 22:18:00 85° E 22:24:09 10° N
Cosmos 967 Rocket 4.3 22:12:52 10° NNW 22:19:14 83° WSW 22:19:56 71° S
Cosmos 1953 Rocket 4.3 22:17:21 10° NNW 22:21:30 48° W 22:21:30 48° W
Tsikada Rocket 3.9 22:16:17 10° N 22:22:45 87° E 22:23:28 72° SSE
H-2A R/B 3.6 22:23:39 28° WSW 22:23:48 28° W 22:27:23 10° NW
Meteor 1-15 Rocket 4.2 22:24:50 83° S 22:25:06 90° W 22:31:02 10° N
Terra 3.1 22:28:05 32° NNE 22:28:05 32° NNE 22:31:01 10° N
Milstar 3 Cent rocket 4.3 22:16:08 10° W 22:32:19 40° SSW 22:34:14 38° S
Cosmos 2263 Rocket 3.1 22:37:37 10° NNW 22:41:51 40° NNE 22:41:51 40° NNE
Cosmos 2322 Rocket 3.0 22:48:05 43° NNE 22:48:05 43° NNE 22:51:47 10° NNE
Cosmos 1816 Rocket 4.5 22:40:25 10° N 22:46:48 78° W 22:46:49 78° W
H-2A R/B 2.8 22:48:51 46° N 22:48:51 46° N 22:52:18 10° NNW
SL-16 R/B 3.6 23:42:47 34° NW 23:42:47 34° NW 23:47:15 10° N
USA 215 4.1 23:47:44 42° WNW 23:47:44 42° WNW 23:52:07 10° NW
